Welcome to the New NWS' Forecast!
Most changes are behind the scenes, but click here for differences you might notice.
Latest weather observations around

London, London-Corbin Airport-Magee Field (KLOZ)

Using English Units (Switch to International System of Units)
Date/ Time (EST) Wind (mph) Vis. (mi) Weather Sky Cond. Temp (°F) Rel. Humidity Wind Chill (°F) Heat Index (°F) Pressure Precip. (in)
Air Dwpt 6 hour Altimeter (inHg) Sea level (inHg) 1 hr 3 hr 6 hr
Max Min
Nov 21 13:53 SSW 15 10 Mostly Cloudy BKN046 BKN055 62 43     50%     30 30      
Nov 21 12:53 SW 10 10 Partly Cloudy SCT047 59 43     55%     30.02 30.02      
Nov 21 11:53 SW 11 10 Partly Cloudy SCT040 57 39     51%     30.04 30.05      
Nov 21 10:53 SSW 6 10 Clear CLR 52 36     54%     30.07 30.07      
Nov 21 09:53 SSW 3 10 Clear CLR 48 34     58% 47   30.07 30.08      
Nov 21 08:53 Calm 10 Clear CLR 37 30     76%     30.07 30.09      
Nov 21 07:53 Calm 10 Clear CLR 30 25     81%     30.07 30.09      
Nov 21 06:53 Calm 9 Clear CLR 28 23     81%     30.07 30.09      
Nov 21 05:53 Calm 10 Clear CLR 29 24     82%     30.06 30.08      
Nov 21 04:53 Calm 10 Clear CLR 31 24     75%     30.06 30.07      
Nov 21 03:53 S 3 10 Clear CLR 29 24     82% 25   30.07 30.08      
Nov 21 02:53 SSW 3 10 Clear CLR 33 24     69% 30   30.07 30.08      
Nov 21 01:53 Calm 10 Clear CLR 31 24     75%     30.07 30.08      
Nov 21 00:53 Calm 10 Clear CLR 31 24     75%     30.08 30.1      
Nov 20 23:53 Calm 10 Clear CLR 33 25     72%     30.09 30.11      
Nov 20 22:53 Calm 10 Clear CLR 33 24     69%     30.09 30.11      
Nov 20 21:53 SSE 5 10 Clear CLR 37 24     59% 33   30.09 30.11      
Nov 20 20:53 SSE 3 10 Clear CLR 37 25     61% 35   30.1 30.12      
Nov 20 19:53 SSE 5 10 Clear CLR 37 26     64% 33   30.1 30.13      
Nov 20 18:53 SSE 3 10 Clear CLR 40 26     57% 38   30.11 30.13      
Nov 20 17:53 Calm 10 Clear CLR 44 23     43%     30.12 30.14      
Nov 20 16:53 S 3 10 Clear CLR 49 19     30% 48   30.12 30.14      
Nov 20 15:53 SSE 6 10 Clear CLR 50 15     25% 48   30.14 30.15      
Nov 20 14:53 SE 7 10 Clear CLR 50 20     30% 47   30.15 30.16      
Nov 20 13:53 SE 6 10 Clear CLR 47 19     33% 44   30.18 30.2      
Nov 20 12:53 Calm 10 Clear CLR 45 22     40%     30.22 30.24      
Nov 20 11:53 SW 6 10 Clear CLR 41 24     51% 37   30.26 30.28      
Nov 20 10:53 5 10 Clear CLR 37 25     61% 33   30.28 30.3      
Nov 20 09:53 S 3 10 Clear CLR 33 27     78% 30   30.27 30.3      
Nov 20 08:53 S 3 8 Clear CLR 28 26     92% 24   30.27 30.31      
Nov 20 07:53 Calm 7 Clear CLR 24 22     91%     30.26 30.29      
Nov 20 06:53 Calm 9 Clear CLR 24 21     88%     30.24 30.27      
Nov 20 05:53 Calm 7 Clear CLR 24 22     91%     30.23 30.26      
Nov 20 04:53 Calm 7 Clear CLR 25 22     88%     30.22 30.24      
Nov 20 03:53 Calm 6 Fog/Mist CLR 25 22     88%     30.23 30.26      
Nov 20 02:53 Calm 7 Clear CLR 26 24     92%     30.22 30.25      
Nov 20 01:53 Calm 8 Clear CLR 26 24     92%     30.21 30.24      
Nov 20 00:53 Calm 8 Clear CLR 27 24     89%     30.21 30.23      
Nov 19 23:53 Calm 8 Clear CLR 28 26     92%     30.2 30.22      
Nov 19 22:53 Calm 10 Clear CLR 30 26     85%     30.2 30.22      
Nov 19 21:53 Calm 10 Clear CLR 30 25     81%     30.18 30.2      
Nov 19 20:53 Calm 10 Clear CLR 32 26     78%     30.18 30.19      
Nov 19 19:53 SW 5 10 Clear CLR 34 26     72% 30   30.16 30.18      
Nov 19 19:20 Calm 10 Mostly Clear FEW030 34 26     72%     30.16        
Nov 19 18:53 WNW 7 10 Mostly Cloudy BKN028 35 27     72% 29   30.15 30.17      
Nov 19 18:14 WNW 5 10 Cloudy OVC028 37 28     70% 33   30.11        
Nov 19 17:53 W 7 10 Cloudy OVC032 38 27     64% 33   30.11        
Nov 19 16:53 WNW 9 10 Cloudy OVC036 39 28     64% 33   30.1 30.11      
Nov 19 15:53 W 10 10 Cloudy OVC032 40 29     65% 33   30.07 30.08      
Nov 19 14:53 W 9 10 Cloudy OVC033 40 29     65% 34   30.04 30.06      
Nov 19 13:53 WNW 14 10 Cloudy FEW026 OVC033 40 29     65% 32   30.05 30.06      
Nov 19 13:44 W 13 10 Cloudy SCT026 OVC033 40 28     62% 32   30.06        
Nov 19 13:27 W 14 10 Cloudy BKN026 OVC035 40 30     67% 32   30.06        
Nov 19 13:10 WNW 9 10 Cloudy SCT022 OVC035 40 31     70% 34   30.05        
Nov 19 12:53 W 15 10 Cloudy BKN022 BKN030 OVC035 40 31     70% 32   30.06 30.07      
Nov 19 12:46 W 11 10 Cloudy BKN022 OVC030 40 31     70% 33   30.06        
Nov 19 11:53 W 10 10 Cloudy BKN030 OVC036 41 30     65% 35   30.06 30.07      
Nov 19 11:08 WNW 7 10 Cloudy SCT029 OVC038 40 30     67% 35   30.06        
Nov 19 10:53 W 10 10 Cloudy BKN028 OVC036 40 30     67% 33   30.06 30.07      
Nov 19 09:53 NW 8 10 Cloudy OVC033 39 29     67% 33   30.05 30.05      
Nov 19 08:53 WNW 9 10 Cloudy OVC035 39 31     72% 33   30.02 30.02      
Nov 19 08:06 WNW 7 10 Cloudy FEW024 OVC031 38 32     79% 33   30        
Nov 19 07:53 WNW 8 10 Cloudy SCT024 OVC029 38 31     76% 32   30 29.99      
Nov 19 07:23 WNW 7 10 Cloudy BKN027 OVC033 38 30     73% 33   29.98        
Nov 19 06:53 NW 5 10 Cloudy OVC033 38 29     70% 34   29.97 29.96     0
Nov 19 05:53 WNW 13 10 Cloudy OVC030 39 33     79% 31   29.95 29.95      
Nov 19 05:06 W 8 10 Cloudy OVC030 39 35     86% 33   29.93        
Nov 19 04:53 W 9 10 Cloudy OVC028 39 36     89% 33   29.92 29.92 0    
Nov 19 03:53 NW 9 10 Light Rain BKN018 OVC022 39 36     89% 33   29.92 29.91 0 0  
Nov 19 03:25 W 8 10 Light Rain FEW009 BKN020 OVC026 39 37     93% 33   29.92   0    
Nov 19 02:53 W 10 10 Light Rain SCT009 BKN013 OVC031 39 37     93% 32   29.92 29.91 0    
Nov 19 02:45 W 11 7 Light Rain BKN009 BKN013 OVC021 39 37     93% 32   29.91   0    
Nov 19 02:24 WNW 11 5 Light Rain and Fog/Mist SCT008 BKN020 OVC026 39 37     93% 32   29.9   0    
Nov 19 01:53 WNW 16 10 Cloudy OVC026 40 36     86% 31   29.89 29.88 0    
Nov 19 00:53 NW 21 10 Cloudy and Windy OVC019 42 36     79% 33   29.85   0   1
Nov 19 00:27 NW 15 10 Cloudy BKN016 OVC021 42 37     82% 35   29.82   0    
Nov 18 23:53 WNW 16 10 Light Rain BKN014 OVC022 42 40     92% 34   29.79 29.78 0    
Nov 18 22:53 W 22 5 Light Rain and Fog/Mist BKN010 BKN016 OVC028 43 41     93% 34   29.71 29.7 0    
Nov 18 22:38 WNW 23 6 Light Rain and Fog/Mist FEW010 BKN015 OVC028 44 41     89% 35   29.69   0    
Nov 18 22:27 WNW 23 5 Light Rain and Fog/Mist FEW008 BKN012 OVC030 45 42     90% 36   29.67   0    
Nov 18 22:18 W 20 7 Cloudy and Windy SCT012 BKN018 OVC030 45 42     90% 37   29.66        
Nov 18 21:53 WNW 24 6 Fog/Mist SCT010 BKN014 OVC026 48 44     86% 40   29.62 29.61 0 1  
Nov 18 21:09   9 Light Rain FEW008 BKN013 OVC019 55 51     86%     29.54   0    
Nov 18 20:53   10 Light Rain SCT012 BKN018 OVC085 57 53     87%     29.52 29.5 0    
Nov 18 20:51   10 Light Rain FEW009 BKN016 OVC085 57 54     88%     29.52   0    
Nov 18 20:10 W 15 3 Rain and Fog/Mist FEW010 BKN035 OVC049 58 55     90%     29.48   0    
Nov 18 20:07   1 Heavy Rain and Fog/Mist FEW010 SCT024 OVC031 58 56     93%     29.47   0    
Nov 18 20:05   0.75 Heavy Rain and Fog/Mist FEW010 SCT021 OVC026 59 56     90%     29.48   0    
Nov 18 19:57   1.5 Heavy Rain and Fog/Mist FEW011 BKN021 OVC026 61 58     90%     29.47   0    
Nov 18 19:53   4 Heavy Rain and Fog/Mist FEW018 OVC024 62 58     86%     29.45 29.43 0    
Nov 18 18:53 SSW 17 10 Light Rain BKN027 OVC036 64 55     73%     29.42 29.4 0   0
Nov 18 17:53   10 Cloudy BKN028 OVC033 64 54     70%     29.46 29.44 0    
Nov 18 16:53 S 13 10 Cloudy OVC029 63 53     70%     29.48 29.46      
Nov 18 16:35 S 16 10 Cloudy BKN029 OVC034 63 52     67%     29.47        
Nov 18 15:53 SSW 21 10 Cloudy and Windy OVC031 64 52     65%     29.5 29.48      
Nov 18 15:49 SSW 21 10 Cloudy and Windy OVC031 64 52     64%     29.51        
Nov 18 14:53 SSW 22 10 Cloudy and Windy OVC029 63 51     65%     29.55 29.53      
Nov 18 13:53 SSW 18 10 Cloudy BKN034 OVC040 63 50     63%     29.6 29.58      
Jun 11 23:53 Calm 10 Clear CLR 71 62     73%   71 30.14 30.1      
Jun 11 02:53 Calm 10 Clear   64 60     87%     30.13 30.09      
Jun 10 10:53 SSW 5 10 Clear CLR 75 58     55%   75 30.12 30.09      
Jun 10 03:53 Calm 9 Clear CLR 57 54     89%     30.03 30      
Jun 09 06:15 Calm 1.75 Fog/Mist OVC001 51 49     92%     29.96        
Jun 08 19:53 NW 8 10 Mostly Cloudy BKN085 69 51     53%     29.91 29.89      
Jun 08 14:53 WNW 9 10 Cloudy SCT033 BKN047 OVC080 69 54     59%     29.94 29.92      
Jun 08 11:53 ENE 8 10 Mostly Cloudy BKN017 66 55     68%     29.98 29.95      
Jun 08 07:53 NNE 5 10 Cloudy BKN048 OVC070 55 51     86%     29.97 29.95      
Jun 07 21:53 NNE 9 10 Clear CLR 60 51     72%     29.99 29.96      
Jun 05 15:20 NNE 3 10 Mostly Cloudy FEW017 SCT029 BKN095 71 64     79%   72 29.82   0    
Jun 05 15:12 NNE 3 10 Mostly Cloudy SCT017 BKN029 BKN055 71 64     79%   72 29.82   0